Crestview, FL

2:49 AM CST on February 19, 2018 (GMT -0600)
Sikes

Weather History for KCEW - December, 2011

Change the Weather History Date:

Monday, December 5, 2011

  Actual Average Record
Temperature  
Mean Temperature 60 °F -  
Max Temperature 73 °F 66 °F 81 °F (2013)
Min Temperature 48 °F 36 °F 24 °F (2000)
Degree Days  
Heating Degree Days 4    
Growing Degree Days 10 (Base 50)    
Moisture  
Dew Point 61 °F    
Average Humidity 89    
Maximum Humidity 100    
Minimum Humidity 69    
Precipitation  
Precipitation 0.47 in - - ()
Sea Level Pressure  
Sea Level Pressure 30.08 in    
Wind  
Wind Speed 4 mph (SE)    
Max Wind Speed 14 mph    
Max Gust Speed 25 mph    
Visibility 6 miles    
Events Rain    
Averages and records for this station are not official NWS values.
T = Trace of Precipitation, MM = Missing Value Source: NWS Daily Summary

Daily Weather History Graph

Daily Weather History Graph

Search for Another Location

Airport or City:

Trip Planner

Search our weather history database for the weather conditions in past years. The results will help you decide how hot, cold, wet, or windy it might be!

Date:

Astronomy

Dec. 05, 2011 Rise Set
Actual Time 6:28 AM CST 4:44 PM CST
Civil Twilight 6:02 AM CST 5:10 PM CST
Nautical Twilight 5:32 AM CST 5:40 PM CST
Astronomical Twilight 5:03 AM CST 6:09 PM CST
Moon 1:30 PM CST (12/5) 2:03 AM CST (12/5)
Length of Visible Light 11h 07m
Length of Day
10h 15m
Waxing Gibbous, 80% of the Moon is Illuminated
Dec 5
Waxing Gibbous
Dec 10
Full
Dec 17
Last Quarter
Dec 24
New
Jan 1
First Quarter

Hourly Weather History & Observations

Time (CST) Temp. Dew Point Humidity Pressure Visibility Wind Dir Wind Speed Gust Speed Precip Events Conditions
1:53 AM 52.0 °F 50.0 °F 93% 30.14 in 6.0 mi Calm Calm - N/A   Clear
2:11 AM 50.0 °F 48.2 °F 94% 30.14 in 2.5 mi Calm Calm - N/A   Partly Cloudy
2:30 AM 50.0 °F 48.2 °F 94% 30.13 in 7.0 mi ENE 3.5 mph - N/A   Partly Cloudy
2:53 AM 51.1 °F 48.9 °F 92% 30.12 in 9.0 mi ENE 3.5 mph - 0.01 in   Clear
3:53 AM 48.9 °F 48.0 °F 97% 30.11 in 4.0 mi ENE 3.5 mph - N/A   Clear
4:53 AM 51.8 °F 48.2 °F 88% 30.11 in 7.0 mi ENE 4.6 mph - N/A   Clear
5:53 AM 52.0 °F 51.1 °F 97% 30.11 in 6.0 mi ENE 3.5 mph - N/A   Clear
6:03 AM 51.8 °F 51.8 °F 100% 30.11 in 1.8 mi ENE 3.5 mph - N/A   Partly Cloudy
6:12 AM 51.8 °F 50.0 °F 94% 30.11 in 3.0 mi ENE 3.5 mph - N/A   Partly Cloudy
6:53 AM 53.1 °F 52.0 °F 96% 30.09 in 4.0 mi ENE 5.8 mph - N/A   Clear
7:39 AM 59.0 °F 57.2 °F 94% 30.11 in 8.0 mi Calm Calm - N/A   Partly Cloudy
7:53 AM 61.0 °F 57.9 °F 90% 30.12 in 10.0 mi SE 3.5 mph - N/A   Scattered Clouds
8:03 AM 62.6 °F 60.8 °F 94% 30.13 in 10.0 mi Variable 3.5 mph - N/A   Mostly Cloudy
8:53 AM 66.0 °F 61.0 °F 84% 30.13 in 10.0 mi ESE 4.6 mph - N/A   Overcast
9:12 AM 69.8 °F 62.6 °F 78% 30.13 in 10.0 mi ESE 5.8 mph - N/A   Overcast
9:26 AM 69.8 °F 62.6 °F 78% 30.13 in 10.0 mi SE 9.2 mph - N/A   Overcast
9:53 AM 70.0 °F 62.1 °F 76% 30.12 in 10.0 mi SE 8.1 mph - N/A   Overcast
10:53 AM 73.0 °F 64.0 °F 73% 30.12 in 10.0 mi South 13.8 mph 21.9 mph N/A   Overcast
11:50 AM 73.4 °F 62.6 °F 69% 30.09 in 10.0 mi SE 12.7 mph 25.3 mph N/A   Overcast
11:53 AM 73.0 °F 63.0 °F 71% 30.09 in 10.0 mi SSE 11.5 mph 25.3 mph N/A   Overcast
12:19 PM 73.4 °F 62.6 °F 69% 30.08 in 10.0 mi South 9.2 mph 18.4 mph N/A   Overcast
12:53 PM 73.0 °F 64.0 °F 73% 30.07 in 10.0 mi SSE 8.1 mph 18.4 mph N/A   Overcast
1:53 PM 73.9 °F 64.0 °F 71% 30.05 in 10.0 mi SSE 13.8 mph 24.2 mph N/A   Overcast
2:53 PM 73.0 °F 64.9 °F 76% 30.04 in 10.0 mi SSE 9.2 mph - N/A   Overcast
3:53 PM 71.6 °F 64.4 °F 78% 30.05 in 10.0 mi SSE 8.1 mph - N/A   Overcast
4:03 PM 71.6 °F 64.4 °F 78% 30.05 in 10.0 mi SSE 8.1 mph - N/A   Overcast
4:19 PM 71.6 °F 66.2 °F 83% 30.05 in 10.0 mi SSE 3.5 mph - N/A   Overcast
4:53 PM 71.1 °F 64.9 °F 81% 30.05 in 10.0 mi SE 6.9 mph - N/A   Overcast
5:14 PM 69.8 °F 64.4 °F 83% 30.04 in 10.0 mi SE 8.1 mph - N/A   Overcast
5:53 PM 70.0 °F 64.9 °F 84% 30.04 in 10.0 mi SE 8.1 mph - N/A   Overcast
6:17 PM 68.0 °F 64.4 °F 88% 30.06 in 1.8 mi West 9.2 mph - 0.09 in Rain Heavy Rain
6:28 PM 66.2 °F 64.4 °F 94% 30.07 in 2.0 mi Calm Calm - 0.14 in Rain Rain
6:38 PM 66.2 °F 64.4 °F 94% 30.07 in 5.0 mi SSE 4.6 mph - 0.15 in Rain Light Rain
6:48 PM 66.2 °F 64.4 °F 94% 30.07 in 2.5 mi SW 4.6 mph - 0.16 in Rain Rain
6:53 PM 66.0 °F 64.0 °F 93% 30.07 in 1.8 mi Variable 6.9 mph - 0.21 in Rain Heavy Rain
7:01 PM 66.2 °F 64.4 °F 94% 30.07 in 1.5 mi SW 3.5 mph - 0.06 in Rain Heavy Rain
7:07 PM 66.2 °F 64.4 °F 94% 30.08 in 2.0 mi SSW 4.6 mph - 0.08 in Rain Heavy Rain
7:15 PM 66.2 °F 64.4 °F 94% 30.07 in 2.5 mi Calm Calm - 0.09 in Rain Rain
7:24 PM 66.2 °F 64.4 °F 94% 30.07 in 3.0 mi Calm Calm - 0.10 in Rain Light Rain
7:31 PM 66.2 °F 64.4 °F 94% 30.07 in 7.0 mi Calm Calm - 0.10 in Rain Light Rain
7:50 PM 66.2 °F 64.4 °F 94% 30.07 in 2.5 mi Calm Calm - 0.12 in Rain Rain
7:53 PM 66.0 °F 64.9 °F 96% 30.06 in 2.5 mi Calm Calm - 0.12 in Rain Light Rain
8:05 PM 66.2 °F 64.4 °F 94% 30.07 in 2.0 mi Calm Calm - 0.03 in Rain Rain
8:14 PM 66.2 °F 64.4 °F 94% 30.06 in 8.0 mi Calm Calm - 0.03 in Rain Light Rain
8:36 PM 66.2 °F 64.4 °F 94% 30.07 in 5.0 mi Calm Calm - 0.04 in Rain Light Rain
8:49 PM 66.2 °F 64.4 °F 94% 30.07 in 2.0 mi Calm Calm - 0.08 in Rain Rain
8:53 PM 66.0 °F 64.9 °F 96% 30.06 in 2.0 mi Calm Calm - 0.08 in Rain Rain
9:04 PM 66.2 °F 64.4 °F 94% 30.06 in 5.0 mi Calm Calm - 0.00 in Rain Light Rain
9:19 PM 66.2 °F 64.4 °F 94% 30.06 in 2.5 mi Calm Calm - 0.03 in Rain Light Rain
9:26 PM 66.2 °F 64.4 °F 94% 30.06 in 5.0 mi Calm Calm - 0.03 in Rain Light Rain
9:33 PM 66.2 °F 64.4 °F 94% 30.07 in 4.0 mi West 3.5 mph - 0.04 in Rain Light Rain
9:53 PM 66.9 °F 64.9 °F 93% 30.05 in 6.0 mi Variable 4.6 mph - 0.05 in Rain Light Rain
10:53 PM 68.0 °F 66.9 °F 96% 30.06 in 6.0 mi South 3.5 mph - 0.00 in   Overcast
11:46 PM 68.0 °F 66.2 °F 94% 30.06 in 6.0 mi SSE 9.2 mph - N/A   Overcast
11:53 PM 68.0 °F 66.9 °F 96% 30.05 in 5.0 mi South 3.5 mph - N/A   Overcast